Time,TemperatureF,DewpointF,PressureIn,WindDirection,WindDirectionDegrees,WindSpeedMPH,WindSpeedGustMPH,Humidity,HourlyPrecipIn,Conditions,Clouds,dailyrainin,SolarRadiationWatts/m^2,SoftwareType,DateUTC
2013-01-07 00:02:00,28.0,28.0,-100.00,NNW,331,0.0,5.0,99,0.00,,,0.04,0.000000,,2013-01-07 08:02:00,
2013-01-07 00:12:00,28.0,28.0,-100.00,NNW,331,0.0,5.0,99,0.00,,,0.04,0.000000,,2013-01-07 08:12:00,
2013-01-07 00:22:00,28.0,28.0,-100.00,NNW,331,0.0,5.0,99,0.00,,,0.04,0.000000,,2013-01-07 08:22:00,
2013-01-07 00:53:00,28.0,28.0,-100.00,NE,47,0.0,3.0,100,0.00,,,0.04,0.000000,,2013-01-07 08:53:00,
2013-01-07 01:02:00,28.0,28.0,-100.00,NE,47,0.0,3.0,100,0.00,,,0.04,0.000000,,2013-01-07 09:02:00,
2013-01-07 01:12:00,28.0,28.0,-100.00,NE,47,0.0,3.0,100,0.00,,,0.04,0.000000,,2013-01-07 09:12:00,
2013-01-07 01:22:00,28.0,28.0,-100.00,NE,47,0.0,3.0,100,0.00,,,0.04,0.000000,,2013-01-07 09:22:00,
2013-01-07 01:52:00,28.0,28.0,-100.00,East,95,2.0,3.0,100,0.00,,,0.04,0.000000,,2013-01-07 09:52:00,
2013-01-07 02:02:00,28.0,28.0,-100.00,East,95,2.0,3.0,100,0.00,,,0.04,0.000000,,2013-01-07 10:02:00,
2013-01-07 02:12:00,28.0,28.0,-100.00,East,95,2.0,3.0,100,0.00,,,0.04,0.000000,,2013-01-07 10:12:00,
2013-01-07 02:22:00,28.0,28.0,-100.00,East,95,2.0,3.0,100,0.00,,,0.04,0.000000,,2013-01-07 10:22:00,
2013-01-07 02:52:00,28.0,28.0,-100.00,North,355,0.0,0.0,100,0.00,,,0.04,0.000000,,2013-01-07 10:52:00,
2013-01-07 03:02:00,28.0,28.0,-100.00,North,355,0.0,0.0,100,0.00,,,0.04,0.000000,,2013-01-07 11:02:00,
2013-01-07 03:12:00,28.0,28.0,-100.00,North,355,0.0,0.0,100,0.00,,,0.04,0.000000,,2013-01-07 11:12:00,
2013-01-07 03:22:00,28.0,28.0,-100.00,North,355,0.0,0.0,100,0.00,,,0.04,0.000000,,2013-01-07 11:22:00,
2013-01-07 03:53:00,28.0,28.0,-100.00,West,259,3.0,4.0,99,0.00,,,0.04,0.000000,,2013-01-07 11:53:00,
2013-01-07 04:02:00,28.0,28.0,-100.00,West,259,3.0,4.0,99,0.00,,,0.04,0.000000,,2013-01-07 12:02:00,
2013-01-07 04:12:00,28.0,28.0,-100.00,West,259,3.0,4.0,99,0.00,,,0.04,0.000000,,2013-01-07 12:12:00,
2013-01-07 04:22:00,28.0,28.0,-100.00,West,259,3.0,4.0,99,0.00,,,0.04,0.000000,,2013-01-07 12:22:00,
2013-01-07 04:53:00,28.0,28.0,-100.00,SSW,192,0.0,3.0,100,0.00,,,0.04,0.000000,,2013-01-07 12:53:00,
2013-01-07 05:02:00,28.0,28.0,-100.00,SSW,192,0.0,3.0,100,0.00,,,0.04,0.000000,,2013-01-07 13:02:00,
2013-01-07 05:12:00,28.0,28.0,-100.00,SSW,192,0.0,3.0,100,0.00,,,0.04,0.000000,,2013-01-07 13:12:00,
2013-01-07 05:22:00,28.0,28.0,-100.00,SSW,192,0.0,3.0,100,0.00,,,0.04,0.000000,,2013-01-07 13:22:00,
2013-01-07 05:53:00,28.0,28.0,-100.00,West,259,2.0,4.0,100,0.00,,,-99.99,0.000000,,2013-01-07 13:53:00,
2013-01-07 06:03:00,28.0,28.0,-100.00,West,259,2.0,4.0,100,0.00,,,-99.99,0.000000,,2013-01-07 14:03:00,
2013-01-07 06:12:00,28.0,28.0,-100.00,West,259,2.0,4.0,100,0.00,,,-99.99,0.000000,,2013-01-07 14:12:00,
2013-01-07 06:22:00,28.0,28.0,-100.00,West,259,2.0,4.0,100,0.00,,,-99.99,0.000000,,2013-01-07 14:22:00,
2013-01-07 06:53:00,28.0,28.0,-100.00,SW,218,0.0,4.0,100,0.00,,,-99.99,0.000000,,2013-01-07 14:53:00,
2013-01-07 07:03:00,28.0,28.0,-100.00,SW,218,0.0,4.0,100,0.00,,,-99.99,0.000000,,2013-01-07 15:03:00,
2013-01-07 07:12:00,28.0,28.0,-100.00,SW,218,0.0,4.0,100,0.00,,,-99.99,0.000000,,2013-01-07 15:12:00,
2013-01-07 07:22:00,28.0,28.0,-100.00,SW,218,0.0,4.0,100,0.00,,,-99.99,0.000000,,2013-01-07 15:22:00,
2013-01-07 07:53:00,28.0,28.0,-100.00,SE,135,0.0,0.0,100,0.00,,,0.04,0.000000,,2013-01-07 15:53:00,
2013-01-07 08:02:00,28.0,28.0,-100.00,SE,135,0.0,0.0,100,0.00,,,0.04,0.000000,,2013-01-07 16:02:00,
2013-01-07 08:12:00,28.0,28.0,-100.00,SE,135,0.0,0.0,100,0.00,,,0.04,0.000000,,2013-01-07 16:12:00,
2013-01-07 08:22:00,28.0,28.0,-100.00,SE,135,0.0,0.0,100,0.00,,,0.04,0.000000,,2013-01-07 16:22:00,
2013-01-07 08:53:00,29.0,29.0,-100.00,SW,231,2.0,5.0,99,0.00,,,0.04,2.000000,,2013-01-07 16:53:00,
2013-01-07 09:02:00,29.0,29.0,-100.00,SW,231,2.0,5.0,99,0.00,,,0.04,2.000000,,2013-01-07 17:02:00,
2013-01-07 09:12:00,29.0,29.0,-100.00,SW,231,2.0,5.0,99,0.00,,,0.04,2.000000,,2013-01-07 17:12:00,
2013-01-07 09:22:00,29.0,29.0,-100.00,SW,231,2.0,5.0,99,0.00,,,0.04,2.000000,,2013-01-07 17:22:00,
2013-01-07 09:53:00,30.0,30.0,-100.00,SSW,208,2.0,4.0,100,0.00,,,0.04,17.000000,,2013-01-07 17:53:00,
2013-01-07 10:02:00,30.0,30.0,-100.00,SSW,208,2.0,4.0,100,0.00,,,0.04,17.000000,,2013-01-07 18:02:00,
2013-01-07 10:12:00,30.0,30.0,-100.00,SSW,208,2.0,4.0,100,0.00,,,0.04,17.000000,,2013-01-07 18:12:00,
2013-01-07 10:23:00,30.0,30.0,-100.00,SSW,208,2.0,4.0,100,0.00,,,0.04,17.000000,,2013-01-07 18:23:00,
2013-01-07 10:53:00,31.0,31.0,-100.00,SSE,161,3.0,5.0,100,0.00,,,0.04,47.000000,,2013-01-07 18:53:00,
2013-01-07 11:03:00,31.0,31.0,-100.00,SSE,161,3.0,5.0,100,0.00,,,0.04,47.000000,,2013-01-07 19:03:00,
2013-01-07 11:12:00,31.0,31.0,-100.00,SSE,161,3.0,5.0,100,0.00,,,0.04,47.000000,,2013-01-07 19:12:00,
2013-01-07 11:22:00,31.0,31.0,-100.00,SSE,161,3.0,5.0,100,0.00,,,0.04,47.000000,,2013-01-07 19:22:00,
2013-01-07 11:53:00,33.0,32.0,-100.00,NW,310,1.0,4.0,96,0.00,,,0.04,145.000000,,2013-01-07 19:53:00,
2013-01-07 12:02:00,33.0,32.0,-100.00,NW,310,1.0,4.0,96,0.00,,,0.04,145.000000,,2013-01-07 20:02:00,
2013-01-07 12:12:00,33.0,32.0,-100.00,NW,310,1.0,4.0,96,0.00,,,0.04,145.000000,,2013-01-07 20:12:00,
2013-01-07 12:22:00,33.0,32.0,-100.00,NW,310,1.0,4.0,96,0.00,,,0.04,145.000000,,2013-01-07 20:22:00,
2013-01-07 12:53:00,33.0,32.0,-100.00,SSE,147,6.0,7.0,98,0.05,,,0.06,245.000000,,2013-01-07 20:53:00,
2013-01-07 13:02:00,33.0,32.0,-100.00,SSE,147,6.0,7.0,98,0.05,,,0.06,245.000000,,2013-01-07 21:02:00,
2013-01-07 13:12:00,33.0,32.0,-100.00,SSE,147,6.0,7.0,98,0.05,,,0.06,245.000000,,2013-01-07 21:12:00,
2013-01-07 13:22:00,33.0,32.0,-100.00,SSE,147,6.0,7.0,98,0.05,,,0.06,245.000000,,2013-01-07 21:22:00,
2013-01-07 13:53:00,34.0,34.0,-100.00,NE,54,5.0,7.0,100,0.07,,,0.12,239.000000,,2013-01-07 21:53:00,
2013-01-07 14:02:00,34.0,34.0,-100.00,NE,54,5.0,7.0,100,0.07,,,0.12,239.000000,,2013-01-07 22:02:00,
2013-01-07 14:12:00,34.0,34.0,-100.00,NE,54,5.0,7.0,100,0.07,,,0.12,239.000000,,2013-01-07 22:12:00,
2013-01-07 14:22:00,34.0,34.0,-100.00,NE,54,5.0,7.0,100,0.07,,,0.12,239.000000,,2013-01-07 22:22:00,
2013-01-07 14:53:00,37.0,37.0,-100.00,South,184,3.0,7.0,100,0.05,,,0.17,201.000000,,2013-01-07 22:53:00,
2013-01-07 15:02:00,37.0,37.0,-100.00,South,184,3.0,7.0,100,0.05,,,0.17,201.000000,,2013-01-07 23:02:00,
2013-01-07 15:12:00,37.0,37.0,-100.00,South,184,3.0,7.0,100,0.05,,,0.17,201.000000,,2013-01-07 23:12:00,
2013-01-07 15:22:00,37.0,37.0,-100.00,South,184,3.0,7.0,100,0.05,,,0.17,201.000000,,2013-01-07 23:22:00,
2013-01-07 15:53:00,36.0,35.0,-100.00,NNE,24,5.0,9.0,96,0.02,,,0.19,127.000000,,2013-01-07 23:53:00,
2013-01-07 16:02:00,36.0,35.0,-100.00,NNE,24,5.0,9.0,96,0.02,,,0.19,127.000000,,2013-01-08 00:02:00,
2013-01-07 16:12:00,36.0,35.0,-100.00,NNE,24,5.0,9.0,96,0.02,,,0.19,127.000000,,2013-01-08 00:12:00,
2013-01-07 16:22:00,36.0,35.0,-100.00,NNE,24,5.0,9.0,96,0.02,,,0.19,127.000000,,2013-01-08 00:22:00,
2013-01-07 16:52:00,39.0,38.0,-100.00,SW,236,4.0,11.0,97,0.00,,,0.19,40.000000,,2013-01-08 00:52:00,
2013-01-07 17:02:00,39.0,38.0,-100.00,SW,236,4.0,11.0,97,0.00,,,0.19,40.000000,,2013-01-08 01:02:00,
2013-01-07 17:52:00,37.0,36.0,-100.00,NW,321,4.0,12.0,97,-99.99,,,-99.99,1.000000,,2013-01-08 01:52:00,
2013-01-07 18:02:00,37.0,36.0,-100.00,NW,321,4.0,12.0,97,-99.99,,,-99.99,1.000000,,2013-01-08 02:02:00,
2013-01-07 18:12:00,37.0,36.0,-100.00,NW,321,4.0,12.0,97,-99.99,,,-99.99,1.000000,,2013-01-08 02:12:00,
2013-01-07 18:22:00,37.0,36.0,-100.00,NW,321,4.0,12.0,97,-99.99,,,-99.99,1.000000,,2013-01-08 02:22:00,
2013-01-07 18:53:00,38.0,38.0,-100.00,SW,222,5.0,10.0,100,0.00,,,0.19,0.000000,,2013-01-08 02:53:00,
2013-01-07 19:03:00,38.0,38.0,-100.00,SW,222,5.0,10.0,100,0.00,,,0.19,0.000000,,2013-01-08 03:03:00,
2013-01-07 19:53:00,41.0,36.0,-100.00,SW,226,6.0,15.0,83,0.00,,,0.19,0.000000,,2013-01-08 03:53:00,
2013-01-07 20:02:00,41.0,36.0,-100.00,SW,226,6.0,15.0,83,0.00,,,0.19,0.000000,,2013-01-08 04:02:00,
2013-01-07 20:52:00,40.0,36.0,-100.00,WNW,282,5.0,10.0,84,-99.99,,,0.19,0.000000,,2013-01-08 04:52:00,
2013-01-07 21:03:00,40.0,36.0,-100.00,WNW,282,5.0,10.0,84,-99.99,,,0.19,0.000000,,2013-01-08 05:03:00,
2013-01-07 21:53:00,46.0,31.0,-100.00,WSW,249,13.0,22.0,56,-99.99,,,0.19,0.000000,,2013-01-08 05:53:00,
2013-01-07 22:02:00,46.0,31.0,-100.00,WSW,249,13.0,22.0,56,-99.99,,,0.19,0.000000,,2013-01-08 06:02:00,
2013-01-07 22:53:00,42.0,31.0,-100.00,WNW,294,11.0,19.0,65,-99.99,,,0.19,0.000000,,2013-01-08 06:53:00,
2013-01-07 23:02:00,42.0,31.0,-100.00,WNW,294,11.0,19.0,65,-99.99,,,0.19,0.000000,,2013-01-08 07:02:00,
2013-01-07 23:52:00,40.0,32.0,-100.00,NW,306,6.0,14.0,73,-99.99,,,0.19,0.000000,,2013-01-08 07:52:00,